Location: Kosice
(0.0000°N, 21.2500°E)
Time: 05:17:31
(UTC+01:00)

Cosmos 1076 Rocket - Pass Details

Date: 24 January 2021
Orbit: 588 x 613 km, 82.5° (Epoch: 04 March)

Event Time Altitude Azimuth Distance (km) Brightness Sun altitude
Rises 19:27:48 0° 181° (S) 2,876 7.3 -23.7°
Reaches altitude 10° 19:30:02 10° 180° (S) 1,970 6.4 -24.2°
Enters shadow 19:33:16 48° 167° (SSE) 797 4.1 -25.0°
